[[{"header":{"parameterUnit":"m.s-1","parameterCategory":1,"la1":30.2991,"la2":30.254,"lo1":-89.0895,"lo2":-89.0444,"dy":0.0017,"dx":0.0017,"nx":28,"ny":28,"refTime":"2023-08-03T09:00:00:Z","depth":0,"parameterNumber":2,"parameterNumberName":"U-component_of_WINDS"},"data":[0,0,0,0,0,0,0,0,0,0,0,0,0,0,0,0,0,0,0,0,0,0,0,0,0,0,0,0,0,0,0,0,0,0,0,0,0,0,0,0,0,0,0,0,0,0,0,0,0,0,0,0,0,0,0,0,0,0,-0.5432,-0.5431,0,-0.5343,-0.5342,-0.5341,-0.5297,-0.5297,-0.5297,-0.5297,-0.5203,-0.5201,-0.5198,0,0,0,0,0,0,0,0,0,0,0,0,0,-0.5565,-0.5563,-0.5432,-0.5431,-0.543,-0.5343,-0.5342,-0.534,-0.5297,-0.5297,-0.5297,-0.5297,-0.5204,-0.5201,-0.5198,0,0,0,0,0,0,0,0,0,0,0,0,0,-0.5495,-0.5563,-0.5433,-0.5398,-0.5394,-0.5343,-0.5342,-0.534,-0.5297,-0.5297,-0.5297,-0.5297,-0.5205,-0.5201,-0.5198,-0.5174,0,0,-0.5186,-0.5184,0,0,0,0,0,0,0,0,-0.5499,-0.549,-0.5404,-0.54,-0.5396,-0.5331,-0.5354,-0.5284,-0.5297,-0.5334,-0.5297,-0.5297,-0.5246,-0.5239,-0.5222,-0.5169,-0.5165,-0.5186,-0.5183,-0.5182,-0.5181,0,0,0,0,0,0,0,-0.5504,-0.5494,-0.5397,-0.5403,-0.5398,-0.5387,-0.5377,-0.5341,-0.5291,-0.5331,-0.5327,-0.5317,-0.5243,-0.5225,-0.5219,-0.5164,-0.5186,-0.5182,-0.518,-0.5179,-0.5089,-0.5089,0,0,0,0,0,0,-0.5515,-0.5498,-0.54,-0.5394,-0.5449,-0.5385,-0.5373,-0.5352,-0.5291,-0.5282,-0.5317,-0.5316,-0.5232,-0.5223,-0.5216,-0.5184,-0.5182,-0.5178,-0.5176,-0.5089,-0.5089,-0.5089,0,0,0,0,0,0,-0.5518,-0.5506,-0.5403,-0.5445,-0.5431,-0.5382,-0.5358,-0.535,-0.5332,-0.5281,-0.5272,-0.5308,-0.5231,-0.5221,-0.5185,-0.518,-0.5177,-0.5173,-0.5089,-0.5089,-0.5089,-0.5121,0,0,0,0,0,0,-0.5522,-0.5508,-0.5498,-0.5445,-0.5429,-0.5374,-0.5358,-0.5348,-0.5326,-0.5323,-0.527,-0.5261,-0.5231,-0.5191,-0.5181,-0.5175,-0.517,-0.5089,-0.5089,-0.5089,-0.512,-0.5122,-0.5124,0,0,0,0,0,-0.5527,-0.551,-0.5498,-0.5486,-0.5416,-0.5374,-0.5365,-0.5331,-0.5326,-0.5316,-0.5283,-0.5263,-0.5183,-0.5188,-0.5176,-0.5169,-0.509,-0.5089,-0.5089,-0.512,-0.5122,-0.5124,0,0,0,0,0,0,-0.5562,-0.5502,-0.5488,-0.5454,-0.542,-0.5367,-0.5353,-0.5334,-0.53,-0.5298,-0.5257,-0.5245,-0.5213,-0.5187,-0.5194,-0.5144,-0.5134,-0.5132,-0.5161,-0.5163,-0.5165,-0.5171,-0.5167,0,0,0,0,0,-0.5566,-0.5537,-0.5486,-0.5461,-0.5445,-0.5402,-0.5382,-0.536,-0.5322,-0.5307,-0.5272,-0.5236,-0.5203,-0.5181,-0.5148,-0.5117,-0.5105,-0.5106,-0.5108,-0.511,-0.5108,-0.5091,-0.5091,-0.5088,-0.5088,-0.5088,0,0,-0.5573,-0.5537,-0.5521,-0.5467,-0.5438,-0.5409,-0.539,-0.536,-0.5338,-0.5302,-0.5266,-0.524,-0.5197,-0.5164,-0.5147,-0.5141,-0.5107,-0.511,-0.5111,-0.5108,-0.5091,-0.5091,-0.5091,-0.5088,-0.5088,-0.5088,0,0,-0.5572,-0.5542,-0.5518,-0.549,-0.5446,-0.5418,-0.5413,-0.5364,-0.5345,-0.5309,-0.5282,-0.5255,-0.5199,-0.517,-0.5148,-0.5139,-0.5119,-0.5129,-0.5137,-0.5121,-0.5121,-0.5122,-0.5119,-0.5118,-0.5127,-0.5127,-0.5127,0,-0.5586,-0.5542,-0.5508,-0.548,-0.5457,-0.5425,-0.5401,-0.5375,-0.5323,-0.5308,-0.5302,-0.5232,-0.5201,-0.5161,-0.5159,-0.5142,-0.5135,-0.5134,-0.5124,-0.5124,-0.5123,-0.512,-0.512,-0.5129,-0.5129,-0.5128,-0.5128,0,-0.5562,-0.5532,-0.5518,-0.547,-0.5446,-0.542,-0.5382,-0.5362,-0.5342,-0.5315,-0.5279,-0.5241,-0.52,-0.5189,-0.5168,-0.5147,-0.5145,-0.5132,-0.5122,-0.5126,-0.5122,-0.5121,-0.5131,-0.513,-0.513,-0.513,0,0,-0.5579,-0.5514,-0.5509,-0.5488,-0.5438,-0.5414,-0.5388,-0.5349,-0.5333,-0.5298,-0.5275,-0.5229,-0.5218,-0.5193,-0.517,-0.5156,-0.5152,-0.5145,-0.5143,-0.5148,-0.5127,-0.5136,-0.5136,-0.5139,-0.5139,-0.5138,-0.5131,0,-0.5571,-0.5522,-0.5491,-0.5454,-0.5426,-0.5397,-0.5374,-0.5341,-0.5316,-0.5289,-0.5261,-0.5229,-0.5217,-0.5202,-0.5187,-0.5156,-0.5147,-0.5156,-0.5117,-0.5116,-0.5128,-0.5134,-0.5143,-0.5137,-0.5129,-0.5129,-0.5128,0,-0.5554,-0.5522,-0.5483,-0.5439,-0.5426,-0.5406,-0.5368,-0.5343,-0.5306,-0.5289,-0.5263,-0.5239,-0.521,-0.5204,-0.5163,-0.517,-0.5153,-0.5135,-0.5134,-0.5129,-0.5122,-0.5128,-0.5134,-0.5134,-0.5126,-0.5126,-0.5126,0,-0.5571,-0.5518,-0.5488,-0.547,-0.5417,-0.5404,-0.5382,-0.5345,-0.5324,-0.5292,-0.5278,-0.5243,-0.5223,-0.5196,-0.5164,-0.5162,-0.5128,-0.5118,-0.5112,-0.5113,-0.5106,-0.5106,-0.5109,-0.5095,-0.5095,-0.5095,-0.5095,0,-0.5564,-0.5542,-0.5494,-0.5476,-0.545,-0.5416,-0.5391,-0.5366,-0.5334,-0.5311,-0.5283,-0.5261,-0.522,-0.5194,-0.5169,-0.514,-0.5131,-0.5116,-0.511,-0.5118,-0.512,-0.5106,-0.5105,-0.5095,-0.5095,-0.5095,-0.5095,0,-0.5578,-0.5545,-0.5511,-0.5465,-0.5453,-0.5436,-0.5396,-0.5378,-0.5352,-0.5323,-0.5314,-0.5273,-0.5241,-0.5207,-0.5162,-0.5145,-0.5118,-0.5108,-0.513,-0.5127,-0.5123,-0.5124,-0.5116,-0.5114,-0.5102,-0.5102,-0.5102,0,-0.5576,-0.5558,-0.5511,-0.5493,-0.5472,-0.5444,-0.5423,-0.5389,-0.5369,-0.5327,-0.5314,-0.528,-0.5251,-0.5201,-0.5167,-0.5134,-0.5123,-0.5123,-0.5118,-0.5128,-0.5124,-0.5125,-0.5123,-0.5124,-0.5125,-0.5125,-0.5125,0,-0.5576,-0.5561,-0.5532,-0.5499,-0.5475,-0.5447,-0.5417,-0.5405,-0.5365,-0.5344,-0.5311,-0.5289,-0.5245,-0.5212,-0.5175,-0.5152,-0.5132,-0.5127,-0.5124,-0.5133,-0.5146,-0.5139,-0.5135,-0.5127,-0.5127,-0.5127,-0.5127,-0.5127,-0.5581,-0.5564,-0.5529,-0.5499,-0.5474,-0.5447,-0.5428,-0.5401,-0.5373,-0.5335,-0.5317,-0.5285,-0.525,-0.5199,-0.5176,-0.5151,-0.5145,-0.514,-0.5139,-0.5138,-0.5141,-0.5151,-0.5144,-0.5144,-0.5144,-0.5143,-0.5143,0,-0.558,-0.5556,-0.5529,-0.5489,-0.5466,-0.5451,-0.5418,-0.54,-0.5372,-0.5342,-0.5314,-0.5278,-0.5246,-0.5211,-0.5178,-0.5164,-0.5154,-0.5156,-0.5157,-0.5152,-0.5148,-0.5154,-0.5165,-0.5165,-0.5165,-0.5165,-0.5165,-0.5165,-0.5576,-0.5548,-0.553,-0.5489,-0.5465,-0.5434,-0.5417,-0.5393,-0.5369,-0.5329,-0.5303,-0.5281,-0.5249,-0.5214,-0.5184,-0.5175,-0.5164,-0.5169,-0.5157,-0.5154,-0.5152,-0.515,-0.5156,-0.5167,-0.5167,-0.5163,-0.5163,-0.5163]},{"header":{"parameterUnit":"m.s-1","parameterCategory":1,"la1":30.2991,"la2":30.254,"lo1":-89.0895,"lo2":-89.0444,"dy":0.0017,"dx":0.0017,"nx":28,"ny":28,"refTime":"2023-08-03T09:00:00:Z","depth":0,"parameterNumber":3,"parameterNumberName":"V-component_of_WINDS"},"data":[0,0,0,0,0,0,0,0,0,0,0,0,0,0,0,0,0,0,0,0,0,0,0,0,0,0,0,0,0,0,0,0,0,0,0,0,0,0,0,0,0,0,0,0,0,0,0,0,0,0,0,0,0,0,0,0,0,0,4.4389,4.4389,0,4.4317,4.4316,4.4315,4.4299,4.43,4.43,4.4301,4.4219,4.4216,4.4213,0,0,0,0,0,0,0,0,0,0,0,0,0,4.4508,4.4506,4.439,4.4389,4.4388,4.4317,4.4316,4.4315,4.4299,4.43,4.43,4.4301,4.422,4.4216,4.4213,0,0,0,0,0,0,0,0,0,0,0,0,0,4.4448,4.4506,4.439,4.4372,4.4369,4.4317,4.4316,4.4314,4.4299,4.43,4.4301,4.4301,4.4221,4.4217,4.4213,4.4171,0,0,4.42,4.4199,0,0,0,0,0,0,0,0,4.4452,4.4444,4.4375,4.4373,4.437,4.4318,4.4328,4.4266,4.4299,4.4325,4.4301,4.4302,4.4251,4.4244,4.4228,4.4167,4.4164,4.42,4.4198,4.4196,4.4195,0,0,0,0,0,0,0,4.4456,4.4447,4.436,4.4374,4.4371,4.4365,4.4357,4.4316,4.4284,4.4323,4.4322,4.4314,4.4249,4.4232,4.4226,4.4163,4.42,4.4197,4.4194,4.4193,4.4063,4.4062,0,0,0,0,0,0,4.4464,4.445,4.4363,4.4358,4.4414,4.4362,4.4353,4.4334,4.4284,4.4278,4.4313,4.4313,4.4239,4.4231,4.4223,4.4171,4.4196,4.4192,4.419,4.4064,4.4063,4.4061,0,0,0,0,0,0,4.4467,4.4456,4.4366,4.4404,4.4392,4.4359,4.4337,4.4332,4.4315,4.4277,4.4271,4.4302,4.4239,4.4229,4.4185,4.4168,4.419,4.4187,4.4065,4.4063,4.4062,4.4066,0,0,0,0,0,0,4.447,4.4458,4.4443,4.4404,4.439,4.433,4.4336,4.433,4.4309,4.4308,4.4265,4.4258,4.4239,4.4191,4.4181,4.4163,4.4183,4.4066,4.4064,4.4062,4.4067,4.4065,4.4063,0,0,0,0,0,4.4475,4.4446,4.4442,4.4432,4.4372,4.4329,4.4321,4.4302,4.4308,4.4292,4.4267,4.426,4.4172,4.4186,4.4175,4.4155,4.4067,4.4065,4.4063,4.4068,4.4065,4.4063,0,0,0,0,0,0,4.4481,4.444,4.4436,4.4394,4.4366,4.4327,4.4306,4.4299,4.4266,4.4267,4.4242,4.4232,4.4189,4.4168,4.4185,4.4112,4.4119,4.4115,4.4128,4.4124,4.4122,4.4128,4.418,0,0,0,0,0,4.4478,4.445,4.4414,4.438,4.4367,4.4339,4.432,4.4308,4.4276,4.4263,4.4235,4.4203,4.4168,4.4145,4.4111,4.4064,4.4054,4.4045,4.4043,4.4041,4.4037,4.401,4.4005,4.4054,4.4054,4.4054,0,0,4.447,4.4445,4.4428,4.4381,4.4358,4.4326,4.4329,4.4296,4.4272,4.4257,4.4214,4.4193,4.4155,4.4109,4.4087,4.409,4.4022,4.4038,4.4038,4.4034,4.4007,4.4003,4.3998,4.4052,4.4053,4.4053,0,0,4.4441,4.4419,4.4389,4.4366,4.4331,4.4313,4.4305,4.4268,4.4254,4.4211,4.4199,4.4169,4.4109,4.4083,4.4061,4.4022,4.4014,4.4012,4.3999,4.3973,4.397,4.3966,4.3951,4.3946,4.4008,4.4008,4.4008,0,4.4435,4.439,4.4373,4.4341,4.432,4.4308,4.4276,4.4253,4.4208,4.4193,4.4197,4.4122,4.4096,4.4043,4.4034,4.4018,4.4007,4.4016,4.3972,4.3968,4.3965,4.395,4.3944,4.4008,4.4008,4.4008,4.4008,0,4.4385,4.4353,4.4332,4.4292,4.4268,4.4236,4.4212,4.419,4.418,4.4161,4.4116,4.4084,4.4043,4.403,4.4019,4.3975,4.3978,4.3978,4.3984,4.396,4.3946,4.394,4.4008,4.4008,4.4008,4.4008,0,0,4.4356,4.4307,4.43,4.4281,4.4242,4.4216,4.4183,4.4145,4.4126,4.4095,4.4065,4.4016,4.4015,4.3991,4.3976,4.3954,4.3923,4.3955,4.3954,4.395,4.3872,4.3873,4.3866,4.3918,4.3917,4.3916,4.3875,0,4.4321,4.4264,4.4247,4.4197,4.4167,4.4156,4.4126,4.4098,4.4079,4.4049,4.4027,4.3992,4.3995,4.398,4.3957,4.3932,4.3907,4.3935,4.3888,4.3886,4.3897,4.3859,4.3859,4.3822,4.387,4.3869,4.3868,0,4.4272,4.4243,4.4191,4.4156,4.4143,4.4117,4.4081,4.4053,4.402,4.4008,4.3982,4.3969,4.3932,4.3942,4.3888,4.3907,4.3887,4.3872,4.387,4.3863,4.3875,4.3851,4.381,4.3804,4.3859,4.386,4.3861,0,4.4255,4.4203,4.4165,4.415,4.4108,4.409,4.4071,4.4039,4.4018,4.3985,4.3971,4.3933,4.3913,4.3883,4.386,4.387,4.3808,4.3816,4.3795,4.3796,4.3781,4.3782,4.3736,4.3771,4.3771,4.3771,4.3771,0,4.4217,4.4186,4.4157,4.4134,4.4097,4.4078,4.4042,4.4022,4.3994,4.3965,4.3952,4.3925,4.3897,4.3865,4.3846,4.3804,4.3795,4.3782,4.3778,4.3783,4.3784,4.3768,4.377,4.3769,4.377,4.377,4.377,0,4.4192,4.4172,4.413,4.4095,4.4085,4.406,4.4028,4.4004,4.3985,4.3948,4.3938,4.3908,4.387,4.3845,4.3795,4.3783,4.3736,4.3733,4.3748,4.3746,4.3725,4.3727,4.3666,4.3656,4.3698,4.3698,4.3698,0,4.4169,4.4145,4.4107,4.4088,4.407,4.4039,4.4018,4.3997,4.3975,4.3936,4.3915,4.3877,4.3845,4.3784,4.3756,4.3718,4.3712,4.3693,4.3706,4.3712,4.371,4.3712,4.3709,4.3691,4.369,4.369,4.369,0,4.4129,4.4121,4.4091,4.4058,4.4033,4.4006,4.3978,4.3962,4.3936,4.3911,4.3874,4.3849,4.38,4.3761,4.3721,4.3698,4.3689,4.3687,4.3679,4.3684,4.3693,4.3687,4.3741,4.3687,4.3688,4.3688,4.3688,4.3688,4.4103,4.4081,4.4052,4.4019,4.3996,4.3971,4.3946,4.3925,4.3894,4.3854,4.3843,4.3803,4.377,4.3715,4.3692,4.3659,4.3661,4.3651,4.3648,4.3645,4.3645,4.37,4.3652,4.3652,4.3652,4.3652,4.3652,0,4.4062,4.4043,4.4013,4.3976,4.395,4.3946,4.3915,4.3893,4.3859,4.383,4.3799,4.3755,4.3717,4.3687,4.3648,4.3627,4.3621,4.3617,4.3618,4.3612,4.3646,4.3656,4.3622,4.3622,4.3622,4.3622,4.3622,4.3622,4.4037,4.3999,4.3987,4.3937,4.3918,4.3881,4.3863,4.3839,4.3815,4.3768,4.3737,4.3719,4.3688,4.3647,4.3611,4.3603,4.3588,4.3585,4.3575,4.3607,4.361,4.3613,4.3622,4.3582,4.3582,4.3544,4.3544,4.3544]}]]